DW1114 Weather Reports


Display with metric or nautical units.
time (UTC)temp
F
wind
direction
speed
MPH
gust
MPH
rain 1hr
in
rain 24hr
in
rain mn
in
humidity
%
barometer
mb
20260504022403 51 171 0.0 3.0 0.00 0.00 0.00 1012.9
20260504021903 51 168 1.0 3.0 0.00 0.00 0.00 1012.2
20260504021403 51 157 0.0 3.0 0.00 0.00 0.00 1012.6
20260504020903 51 146 0.0 7.0 0.00 0.00 0.00 1012.6
20260504020424 51 143 0.0 7.0 0.00 0.00 0.00 1012.9
20260504015924 51 135 0.0 5.0 0.00 0.00 0.00 1012.6
20260504015424 51 168 0.0 3.0 0.00 0.00 0.00 1012.2
20260504014903 50 165 0.0 4.0 0.00 0.00 0.00 1012.6
20260504013403 51 138 0.0 5.0 0.00 0.00 0.00 1012.2
20260504012924 50 138 0.0 2.0 0.00 0.00 0.00 1012.6
20260504012446 50 146 0.0 2.0 0.00 0.00 0.00 1012.9
20260504011903 50 140 1.0 3.0 0.00 0.00 0.00 1012.6
20260504011403 50 156 2.0 3.0 0.00 0.00 0.00 1012.6
20260504010903 50 160 1.0 3.0 0.00 0.00 0.00 1012.2
20260504010403 50 158 0.0 4.0 0.00 0.00 0.00 1012.9
20260504005903 50 154 0.0 4.0 0.00 0.00 0.00 1012.6
20260504005403 50 135 0.0 3.0 0.00 0.00 0.00 1012.9
20260504004903 50 157 1.0 3.0 0.00 0.00 0.00 1012.6
20260504004403 50 156 0.0 4.0 0.00 0.00 0.00 1013.2
20260504003903 50 140 2.0 4.0 0.00 0.00 0.00 1013.2
20260504003403 50 146 2.0 4.0 0.00 0.00 0.00 1012.9
20260504002903 50 141 2.0 4.0 0.00 0.00 0.00 1013.2
20260504002403 50 145 2.0 4.0 0.00 0.00 0.00 1012.9
20260504001903 50 142 1.0 4.0 0.00 0.00 0.00 1012.6
20260504001403 50 156 2.0 3.0 0.00 0.00 0.00 1012.9
20260504000924 50 138 0.0 3.0 0.00 0.00 0.00 1013.6
20260504000403 50 119 0.0 3.0 0.00 0.00 0.00 1013.6
20260503235903 50 115 0.0 3.0 0.00 0.00 0.00 1012.6
20260503235403 50 136 2.0 3.0 0.00 0.00 0.00 1012.6
20260503234903 50 153 2.0 3.0 0.00 0.00 0.00 1012.6
20260503234404 50 140 2.0 3.0 0.00 0.00 0.00 1012.6
20260503233923 50 150 2.0 4.0 0.00 0.00 0.00 1012.9
20260503233403 50 149 3.0 4.0 0.00 0.00 0.00 1012.9
20260503232902 50 152 2.0 4.0 0.00 0.00 0.00 1012.2
20260503232403 50 144 2.0 4.0 0.00 0.00 0.00 1012.2
20260503231902 50 150 3.0 5.0 0.00 0.00 0.00 1012.6
20260503231403 50 125 2.0 5.0 0.00 0.00 0.00 1012.6
20260503225903 50 123 1.0 6.0 0.00 0.00 0.00 1013.2
20260503225403 50 137 2.0 6.0 0.00 0.00 0.00 1013.2
20260503224945 50 110 2.0 7.0 0.00 0.00 0.00 1013.2
20260503224403 50 119 2.0 7.0 0.00 0.00 0.00 1013.9
20260503223903 50 147 2.0 4.0 0.00 0.00 0.00 1014.3
20260503222903 51 129 2.0 6.0 0.00 0.00 0.00 1013.6
20260503222403 51 51 0.0 3.0 0.00 0.00 0.00 1013.9
20260503221902 51 81 1.0 4.0 0.00 0.00 0.00 1013.9
20260503221403 51 61 3.0 4.0 0.00 0.00 0.00 1014.3
20260503220925 51 48 1.0 5.0 0.00 0.00 0.00 1014.6
20260503220424 51 56 3.0 5.0 0.00 0.00 0.00 1013.9
20260503215924 51 59 2.0 4.0 0.00 0.00 0.00 1014.6
20260503215403 50 72 2.0 4.0 0.00 0.00 0.00 1013.9
20260503214902 50 79 0.0 5.0 0.00 0.00 0.00 1013.6
20260503214403 50 39 0.0 6.0 0.00 0.00 0.00 1014.3
20260503213923 49 52 2.0 6.0 0.00 0.00 0.00 1014.3
20260503213403 49 85 0.0 6.0 0.00 0.00 0.00 1014.6
20260503212903 49 66 0.0 5.0 0.00 0.00 0.00 1014.3
20260503212424 49 117 0.0 5.0 0.00 0.00 0.00 1014.3
20260503211903 50 11 0.0 20.0 0.00 0.00 0.00 1015.3
20260503211424 50 266 2.0 20.0 0.00 0.00 0.00 1015.6
20260503210903 53 286 6.0 17.0 0.00 0.00 0.00 1014.9
20260503210403 53 266 3.0 8.0 0.00 0.00 0.00 1014.9
20260503205904 53 232 3.0 13.0 0.00 0.00 0.00 1014.9
20260503205403 54 199 6.0 13.0 0.00 0.00 0.00 1014.9
20260503204903 56 206 4.0 15.0 0.00 0.00 0.00 1015.6
20260503204424 57 218 5.0 15.0 0.00 0.00 0.00 1015.6
20260503203903 58 283 5.0 10.0 0.00 0.00 0.00 1014.9
20260503203405 58 228 2.0 7.0 0.00 0.00 0.00 1014.6
20260503202903 58 230 2.0 14.0 0.00 0.00 0.00 1015.3
20260503202403 58 264 6.0 14.0 0.00 0.00 0.00 1014.9
20260503201903 59 199 6.0 10.0 0.00 0.00 0.00 1015.6
20260503201403 59 203 3.0 10.0 0.00 0.00 0.00 1014.6
20260503200924 59 198 5.0 10.0 0.00 0.00 0.00 1015.3
20260503200403 59 195 5.0 11.0 0.00 0.00 0.00 1014.6
20260503195903 60 232 3.0 11.0 0.00 0.00 0.00 1014.9
20260503195403 60 218 4.0 15.0 0.00 0.00 0.00 1014.9
20260503194903 61 259 6.0 23.0 0.00 0.00 0.00 1014.6
20260503194403 61 239 4.0 23.0 0.00 0.00 0.00 1014.9
20260503193902 62 249 4.0 18.0 0.00 0.00 0.00 1014.6
20260503193403 61 267 8.0 18.0 0.00 0.00 0.00 1014.6
20260503192902 62 252 7.0 17.0 0.00 0.00 0.00 1014.6
20260503192403 61 269 5.0 21.0 0.00 0.00 0.00 1015.3
20260503191903 61 252 7.0 21.0 0.00 0.00 0.00 1015.3
20260503191403 61 236 4.0 18.0 0.00 0.00 0.00 1015.3
20260503190902 61 226 4.0 11.0 0.00 0.00 0.00 1015.3
20260503190403 61 217 5.0 9.0 0.00 0.00 0.00 1015.3
20260503185903 61 193 3.0 9.0 0.00 0.00 0.00 1015.6
20260503185403 60 184 4.0 15.0 0.00 0.00 0.00 1015.3
20260503184903 60 239 4.0 15.0 0.00 0.00 0.00 1015.6
20260503184403 61 244 3.0 10.0 0.00 0.00 0.00 1015.6
20260503183903 60 210 5.0 10.0 0.00 0.00 0.00 1015.6
20260503183403 61 225 3.0 9.0 0.00 0.00 0.00 1016.3
20260503182903 60 197 3.0 14.0 0.00 0.00 0.00 1016.0
20260503182402 60 212 5.0 14.0 0.00 0.00 0.00 1016.0
20260503181903 60 227 4.0 12.0 0.00 0.00 0.00 1016.6
20260503181402 60 234 4.0 12.0 0.00 0.00 0.00 1016.6
20260503180903 60 202 4.0 12.0 0.00 0.00 0.00 1016.0
20260503180402 59 226 6.0 14.0 0.00 0.00 0.00 1015.6
20260503175903 59 271 4.0 14.0 0.00 0.00 0.00 1016.0
20260503175402 59 211 4.0 10.0 0.00 0.00 0.00 1016.6
20260503174903 59 213 5.0 10.0 0.00 0.00 0.00 1016.3
20260503174402 59 184 5.0 7.0 0.00 0.00 0.00 1016.0
20260503173903 59 192 4.0 10.0 0.00 0.00 0.00 1016.6
20260503173403 59 233 4.0 11.0 0.00 0.00 0.00 1016.3
20260503172924 59 207 4.0 15.0 0.00 0.00 0.00 1016.3
20260503172424 59 215 4.0 15.0 0.00 0.00 0.00 1017.0
20260503171903 59 201 4.0 11.0 0.00 0.00 0.00 1016.3
20260503171402 58 228 4.0 11.0 0.00 0.00 0.00 1016.6
20260503170903 58 222 3.0 11.0 0.00 0.00 0.00 1017.0
20260503170402 58 204 3.0 13.0 0.00 0.00 0.00 1016.6
20260503150903 54 232 3.0 9.0 0.00 0.00 0.00 1018.3
20260503150403 53 213 3.0 9.0 0.00 0.00 0.00 1018.0
20260503131403 47 236 3.0 9.0 0.00 0.00 0.00 1017.6
20260503130903 47 215 2.0 9.0 0.00 0.00 0.00 1018.0
20260503130403 47 229 2.0 8.0 0.00 0.00 0.00 1018.3
20260503110403 39 208 0.0 0.0 0.00 0.00 0.00 1017.0
20260503090403 38 202 0.0 5.0 0.00 0.00 0.00 1017.3
20260503081403 38 273 0.0 4.0 0.00 0.00 0.00 1017.6
20260503080924 38 229 0.0 6.0 0.00 0.00 0.00 1016.6
20260503080424 38 215 0.0 6.0 0.00 0.00 0.00 1017.0
20260503072903 38 226 1.0 3.0 0.00 0.00 0.00 1017.3
20260503072402 39 99 0.0 3.0 0.00 0.00 0.00 1017.3
20260503071903 39 224 0.0 3.0 0.00 0.00 0.00 1017.0
20260503071403 39 195 0.0 6.0 0.00 0.00 0.00 1017.6
20260503070904 39 259 0.0 6.0 0.00 0.00 0.00 1017.6
20260503070402 39 208 1.0 6.0 0.00 0.00 0.00 1017.3
20260503054903 38 247 0.0 7.0 0.00 0.00 0.00 1017.6
20260503054403 39 248 0.0 2.0 0.00 0.00 0.00 1017.6
20260503053925 39 228 0.0 6.0 0.00 0.00 0.00 1017.6
20260503053403 39 221 0.0 6.0 0.00 0.00 0.00 1017.3
20260503052903 39 267 0.0 6.0 0.00 0.00 0.00 1017.6
20260503052403 39 208 0.0 6.0 0.00 0.00 0.00 1017.3
20260503051903 38 226 0.0 3.0 0.00 0.00 0.00 1017.6
20260503051403 38 225 0.0 1.0 0.00 0.00 0.00 1017.6
20260503050903 38 225 0.0 2.0 0.00 0.00 0.00 1018.0
20260503050403 38 224 0.0 2.0 0.00 0.00 0.00 1018.0
20260503045903 38 219 0.0 6.0 0.00 0.00 0.00 1017.6
20260503045403 38 202 0.0 6.0 0.00 0.00 0.00 1017.6
20260503044903 38 202 0.0 3.0 0.00 0.00 0.00 1017.6
20260503044403 38 225 0.0 6.0 0.00 0.00 0.00 1018.0
20260503043902 37 224 0.0 6.0 0.00 0.00 0.00 1017.6
20260503043403 37 202 0.0 7.0 0.00 0.00 0.00 1018.0
20260503042903 37 201 0.0 7.0 0.00 0.00 0.00 1018.0
20260503042403 37 203 0.0 5.0 0.00 0.00 0.00 1017.6
20260503041924 37 224 0.0 5.0 0.00 0.00 0.00 1018.0
20260503041403 37 188 0.0 4.0 0.00 0.00 0.00 1018.0
20260503040903 37 225 0.0 3.0 0.00 0.00 0.00 1018.0
20260503040403 37 202 0.0 3.0 0.00 0.00 0.00 1017.6
20260503035903 37 244 0.0 2.0 0.00 0.00 0.00 1017.3
20260503035403 38 203 0.0 0.0 0.00 0.00 0.00 1018.0
20260503034903 38 203 0.0 0.0 0.00 0.00 0.00 1018.0
20260503034403 38 225 0.0 0.0 0.00 0.00 0.00 1018.0
20260503033902 38 202 0.0 2.0 0.00 0.00 0.00 1018.0
20260503033403 38 202 0.0 2.0 0.00 0.00 0.00 1017.6
20260503032903 38 225 0.0 6.0 0.00 0.00 0.00 1018.0
20260503032403 38 247 0.0 6.0 0.00 0.00 0.00 1017.3
20260503031903 38 203 0.0 1.0 0.00 0.00 0.00 1017.3
20260503031403 38 203 0.0 5.0 0.00 0.00 0.00 1017.6
20260503030904 39 203 0.0 5.0 0.00 0.00 0.00 1018.0
20260503030402 39 203 0.0 2.0 0.00 0.00 0.00 1018.3
20260503025903 39 203 0.0 2.0 0.00 0.00 0.00 1018.3
20260503025402 39 203 0.0 6.0 0.00 0.00 0.00 1017.6
20260503024904 39 202 0.0 6.0 0.00 0.00 0.00 1017.6
20260503024403 39 158 0.0 6.0 0.00 0.00 0.00 1018.0
20260503023903 39 293 0.0 6.0 0.00 0.00 0.00 1017.3
20260503023403 39 203 0.0 6.0 0.00 0.00 0.00 1018.0
20260503022903 39 203 0.0 8.0 0.00 0.00 0.00 1018.3